This is the latest recevied weather packets stored in our database for station/object WB5CFT. If no packets are shown the sender has not sent any weather packets the latest 10 day(s).
| Time | Temp. | Humidity | Pressure | Rain* | Wind** | Luminosity | Snow |
|---|---|---|---|---|---|---|---|
| 1777905236 | 17.22° C | 69% | 1014.1 hPa | 0 mm | - | 145 W/m² | - |
| 1777904934 | 17.78° C | 69% | 1014.1 hPa | 0 mm | - | 122 W/m² | - |
| 1777904631 | 17.22° C | 69% | 1014.1 hPa | 0 mm | - | 150 W/m² | - |
| 1777904328 | 17.22° C | 69% | 1014.4 hPa | 0 mm | - | 130 W/m² | - |
| 1777904025 | 17.78° C | 68% | 1014.5 hPa | 0 mm | - | 135 W/m² | - |
| 1777903721 | 17.22° C | 69% | 1014.3 hPa | 0 mm | - | 239 W/m² | - |
| 1777903417 | 17.22° C | 69% | 1014.3 hPa | 0 mm | - | 116 W/m² | - |
| 1777903114 | 16.67° C | 70% | 1013.9 hPa | 0 mm | - | 105 W/m² | - |
| 1777902810 | 17.22° C | 70% | 1014 hPa | 0 mm | - | 94 W/m² | - |
| 1777902508 | 16.67° C | 70% | 1013.9 hPa | 0 mm | - | 92 W/m² | - |
| 1777902204 | 16.67° C | 70% | 1014 hPa | 0 mm | - | 80 W/m² | - |
| 1777901903 | 17.22° C | 69% | 1013.8 hPa | 0 mm | - | 88 W/m² | - |
| 1777901600 | 17.78° C | 68% | 1013.9 hPa | 0 mm | - | 185 W/m² | - |
| 1777901297 | 17.22° C | 71% | 1013.9 hPa | 0 mm | - | 180 W/m² | - |
| 1777900996 | 16.67° C | 71% | 1013.7 hPa | 0 mm | - | 113 W/m² | - |
| 1777900693 | 16.67° C | 70% | 1013.7 hPa | 0 mm | - | 100 W/m² | - |
| 1777900389 | 16.11° C | 73% | 1013.6 hPa | 0 mm | - | 115 W/m² | - |
| 1777900086 | 15.56° C | 76% | 1013.9 hPa | 0 mm | - | 97 W/m² | - |
| 1777899782 | 15° C | 77% | 1013.7 hPa | 0 mm | - | 71 W/m² | - |
| 1777899479 | 15.56° C | 77% | 1013.4 hPa | 0 mm | - | 53 W/m² | - |
| 1777899177 | 15° C | 77% | 1013.3 hPa | 0 mm | - | 54 W/m² | - |
| 1777898875 | 15° C | 77% | 1013.3 hPa | 0 mm | - | 48 W/m² | - |
| 1777898572 | 14.44° C | 78% | 1012.7 hPa | 0 mm | - | 35 W/m² | - |
| 1777898269 | 14.44° C | 77% | 1012.6 hPa | 0 mm | - | 18 W/m² | - |
| 1777897966 | 14.44° C | 78% | 1012.7 hPa | 0 mm | - | 18 W/m² | - |
* Rain latest hour (hover to see other rain measurements)
** Current wind speed in m/s (hover to see current wind gust speed)